Douglas, WY

6:19 AM MDT on July 29, 2017 (GMT -0600)
Converse County

Weather History for KDGW - February, 2014

Change the Weather History Date:

Saturday, February 22, 2014

  Actual Average Record
Temperature  
Mean Temperature 22 °F 28 °F  
Max Temperature 29 °F 42 °F 59 °F (2002)
Min Temperature 15 °F 15 °F -6 °F (2010)
Degree Days  
Heating Degree Days 43 37  
Month to date heating degree days 1008 856  
Since 1 July heating degree days 5282 5187  
Cooling Degree Days 0 0  
Month to date cooling degree days 0 0  
Year to date cooling degree days 0 0  
Moisture  
Dew Point 17 °F    
Average Humidity 83    
Maximum Humidity 92    
Minimum Humidity 74    
Precipitation  
Precipitation T in 0.02 in 0.16 in (2012)
Month to date precipitation 0.19 0.33  
Year to date precipitation 0.68 0.71  
Sea Level Pressure  
Sea Level Pressure 29.97 in    
Wind  
Wind Speed 7 mph (NE)    
Max Wind Speed 21 mph    
Max Gust Speed 24 mph    
Visibility 4 miles    
Events Snow    
T = Trace of Precipitation, MM = Missing Value Source: NWS Daily Summary

Daily Weather History Graph

Daily Weather History Graph

Search for Another Location

Airport or City:

Trip Planner

Search our weather history database for the weather conditions in past years. The results will help you decide how hot, cold, wet, or windy it might be!

Date:

Astronomy

Feb. 22, 2014 Rise Set
Actual Time 6:48 AM MST 5:42 PM MST
Civil Twilight 6:19 AM MST 6:11 PM MST
Nautical Twilight 5:46 AM MST 6:43 PM MST
Astronomical Twilight 5:14 AM MST 7:16 PM MST
Moon 12:49 AM MST (2/22) 10:51 AM MST (2/22)
Length of Visible Light 11h 51m
Length of Day
10h 54m
Waning Gibbous, 49% of the Moon is Illuminated
Feb 22
Waning Gibbous
Mar 1
New
Mar 8
First Quarter
Mar 16
Full
Mar 23
Last Quarter

Hourly Weather History & Observations

Time (MST) Temp. Windchill Dew Point Humidity Pressure Visibility Wind Dir Wind Speed Gust Speed Precip Events Conditions
12:42 AM 21.9 °F 13.4 °F 19.0 °F 89% 29.85 in 2.5 mi South 6.9 mph - 0.00 in Snow Light Snow
12:53 AM 21.9 °F 13.4 °F 19.0 °F 89% 29.92 in 3.0 mi South 6.9 mph - 0.00 in Snow Light Snow
1:53 AM 21.9 °F 15.7 °F 19.0 °F 89% 29.91 in 7.0 mi South 4.6 mph - 0.00 in Snow Light Snow
2:36 AM 21.9 °F 14.5 °F 19.0 °F 89% 29.83 in 3.0 mi South 5.8 mph - 0.00 in Snow Light Snow
2:41 AM 21.9 °F 15.7 °F 19.0 °F 89% 29.83 in 1.8 mi South 4.6 mph - 0.00 in Snow Light Snow
2:53 AM 21.9 °F 15.7 °F 19.0 °F 89% 29.91 in 1.5 mi South 4.6 mph - 0.00 in Snow Light Snow
3:02 AM 21.9 °F 15.7 °F 19.0 °F 89% 29.83 in 3.0 mi South 4.6 mph - 0.00 in Snow Light Snow
3:53 AM 21.9 °F 14.5 °F 19.0 °F 89% 29.91 in 10.0 mi South 5.8 mph - 0.00 in   Overcast
4:53 AM 23.0 °F - 19.0 °F 85% 29.95 in 3.0 mi Calm Calm - 0.00 in Snow Light Snow
5:26 AM 21.9 °F 17.2 °F 19.0 °F 89% 29.85 in 2.5 mi ENE 3.5 mph - 0.00 in Snow Light Snow
5:36 AM 21.9 °F 17.2 °F 19.0 °F 89% 29.85 in 4.0 mi NE 3.5 mph - 0.00 in Snow Light Snow
5:53 AM 21.0 °F - 18.0 °F 88% 29.97 in 4.0 mi Calm Calm - 0.00 in Snow Light Snow
6:53 AM 18.0 °F 12.7 °F 16.0 °F 92% 29.98 in 9.0 mi SSE 3.5 mph - 0.00 in Snow Light Snow
7:53 AM 18.0 °F 12.7 °F 15.1 °F 88% 29.99 in 10.0 mi SE 3.5 mph - 0.00 in   Partly Cloudy
8:53 AM 21.0 °F 16.2 °F 17.1 °F 85% 30.00 in 10.0 mi NE 3.5 mph - N/A   Scattered Clouds
9:53 AM 24.1 °F - 19.0 °F 81% 30.01 in 10.0 mi Calm Calm - N/A   Overcast
10:41 AM 26.1 °F - 19.0 °F 75% 29.88 in 10.0 mi Calm Calm - N/A   Overcast
10:53 AM 26.1 °F - 19.0 °F 75% 30.00 in 10.0 mi Calm Calm - N/A   Overcast
11:32 AM 27.0 °F - 19.9 °F 75% 29.88 in 5.0 mi Calm Calm - 0.00 in Snow Light Snow
11:49 AM 26.6 °F 21.2 °F 19.4 °F 74% 29.88 in 1.8 mi North 4.6 mph - 0.00 in Snow Light Snow
11:53 AM 27.0 °F 21.6 °F 19.9 °F 75% 30.00 in 1.0 mi North 4.6 mph - 0.00 in Snow Light Snow
12:03 PM 27.0 °F 18.7 °F 21.0 °F 78% 29.88 in 2.5 mi North 8.1 mph - 0.00 in Snow Light Snow
12:10 PM 27.0 °F 18.7 °F 21.0 °F 78% 29.88 in 7.0 mi North 8.1 mph - 0.00 in Snow Light Snow
12:24 PM 28.0 °F 22.8 °F 21.0 °F 75% 29.88 in 2.5 mi North 4.6 mph - 0.00 in Snow Light Snow
12:32 PM 28.9 °F 22.8 °F 19.9 °F 69% 29.88 in 6.0 mi NNW 5.8 mph - 0.00 in Snow Light Snow
12:40 PM 27.0 °F 18.7 °F 19.9 °F 75% 29.89 in 1.8 mi NNW 8.1 mph - 0.00 in Snow Light Snow
12:53 PM 26.1 °F 16.8 °F 19.9 °F 78% 30.01 in 1.8 mi NNW 9.2 mph - 0.00 in Snow Light Snow
12:57 PM 27.0 °F 18.0 °F 21.0 °F 78% 29.88 in 3.0 mi North 9.2 mph - 0.00 in Snow Light Snow
1:12 PM 26.1 °F 16.2 °F 19.9 °F 78% 29.88 in 1.8 mi North 10.4 mph - 0.00 in Snow Light Snow
1:28 PM 27.0 °F 16.1 °F 21.0 °F 78% 29.88 in 3.0 mi North 12.7 mph - 0.00 in Snow Light Snow
1:43 PM 26.1 °F 13.6 °F 19.9 °F 78% 29.88 in 2.5 mi NNE 16.1 mph - 0.00 in Snow Light Snow
1:53 PM 24.1 °F 10.6 °F 18.0 °F 77% 30.01 in 4.0 mi NNE 17.3 mph - 0.00 in Snow Light Snow
2:14 PM 24.1 °F 10.6 °F 18.0 °F 77% 29.89 in 10.0 mi NNE 17.3 mph - 0.00 in   Overcast
2:37 PM 23.0 °F 8.7 °F 17.1 °F 78% 29.89 in 10.0 mi North 18.4 mph - 0.00 in   Overcast
2:46 PM 21.9 °F 7.8 °F 17.1 °F 82% 29.90 in 10.0 mi NNE 17.3 mph - 0.00 in   Overcast
2:53 PM 23.0 °F 10.1 °F 17.1 °F 78% 30.03 in 10.0 mi NNE 15.0 mph - 0.00 in   Overcast
3:33 PM 21.9 °F 8.2 °F 16.0 °F 78% 29.91 in 9.0 mi NNE 16.1 mph - 0.00 in Snow Light Snow
3:53 PM 21.9 °F 8.7 °F 16.0 °F 78% 30.06 in 4.0 mi NNE 15.0 mph - 0.00 in Snow Light Snow
4:08 PM 21.9 °F 9.2 °F 16.0 °F 78% 29.93 in 4.0 mi North 13.8 mph - 0.00 in Snow Light Snow
4:42 PM 21.0 °F 10.6 °F 15.1 °F 78% 29.94 in 2.5 mi NNE 9.2 mph - 0.00 in Snow Light Snow
4:53 PM 21.0 °F 10.6 °F 15.1 °F 78% 30.09 in 2.5 mi NNE 9.2 mph - 0.00 in Snow Light Snow
5:09 PM 21.0 °F 9.9 °F 15.1 °F 78% 29.96 in 1.8 mi North 10.4 mph - 0.00 in Snow Light Snow
5:16 PM 21.0 °F 11.4 °F 15.1 °F 78% 29.97 in 2.0 mi North 8.1 mph - 0.00 in Snow Light Snow
5:40 PM 19.9 °F 9.3 °F 15.1 °F 81% 29.97 in 1.5 mi North 9.2 mph - 0.00 in Snow Light Snow
5:53 PM 19.9 °F 10.1 °F 15.1 °F 81% 30.13 in 1.8 mi North 8.1 mph - 0.00 in Snow Light Snow
6:00 PM 19.9 °F 10.1 °F 15.1 °F 81% 29.98 in 2.0 mi NNE 8.1 mph - 0.00 in Snow Light Snow
6:07 PM 19.9 °F 8.6 °F 15.1 °F 81% 29.98 in 1.5 mi North 10.4 mph - 0.00 in Snow Light Snow
6:21 PM 19.9 °F 9.3 °F 15.1 °F 81% 29.98 in 2.0 mi NNE 9.2 mph - 0.00 in Snow Light Snow
6:35 PM 19.0 °F 10.0 °F 15.1 °F 85% 29.99 in 1.8 mi NNE 6.9 mph - 0.00 in Snow Light Snow
6:53 PM 19.0 °F 10.0 °F 15.1 °F 85% 30.17 in 1.5 mi NNE 6.9 mph - 0.00 in Snow Light Snow
7:09 PM 19.0 °F 10.0 °F 14.0 °F 81% 30.01 in 3.0 mi NE 6.9 mph - 0.00 in Snow Light Snow
7:25 PM 19.0 °F 11.1 °F 14.0 °F 81% 30.01 in 1.8 mi NNE 5.8 mph - 0.00 in Snow Light Snow
7:39 PM 19.0 °F 9.0 °F 14.0 °F 81% 30.01 in 1.0 mi NE 8.1 mph - 0.00 in Snow Light Snow
7:53 PM 19.0 °F 11.1 °F 15.1 °F 85% 30.18 in 1.0 mi NE 5.8 mph - 0.00 in Snow Light Snow
8:04 PM 19.0 °F 9.0 °F 14.0 °F 81% 30.01 in 1.2 mi NE 8.1 mph - 0.00 in Snow Light Snow
8:16 PM 18.0 °F 7.7 °F 14.0 °F 84% 30.01 in 2.0 mi NE 8.1 mph - 0.00 in Snow Light Snow
8:25 PM 18.0 °F 7.7 °F 14.0 °F 84% 30.02 in 3.0 mi NE 8.1 mph - 0.00 in Snow Light Snow
8:53 PM 18.0 °F 7.7 °F 12.9 °F 81% 30.18 in 3.0 mi NE 8.1 mph - 0.00 in Snow Light Snow
9:22 PM 18.0 °F 6.9 °F 12.9 °F 81% 30.03 in 2.5 mi NE 9.2 mph - 0.00 in Snow Light Snow
9:36 PM 18.0 °F 8.7 °F 12.9 °F 81% 30.03 in 1.8 mi ENE 6.9 mph - 0.00 in Snow Light Snow
9:42 PM 18.0 °F 7.7 °F 12.9 °F 81% 30.04 in 2.0 mi NE 8.1 mph - 0.00 in Snow Light Snow
9:53 PM 18.0 °F 7.7 °F 12.9 °F 81% 30.19 in 2.5 mi NE 8.1 mph - 0.00 in Snow Light Snow
10:06 PM 17.1 °F 5.8 °F 12.9 °F 84% 30.03 in 3.0 mi NE 9.2 mph - 0.00 in Snow Light Snow
10:13 PM 17.1 °F 3.6 °F 12.9 °F 84% 30.03 in 1.8 mi ENE 12.7 mph - 0.00 in Snow Light Snow
10:29 PM 17.1 °F 3.6 °F 12.0 °F 81% 30.03 in 2.5 mi ENE 12.7 mph - 0.00 in Snow Light Snow
10:53 PM 17.1 °F 4.3 °F 12.0 °F 81% 30.17 in 2.5 mi East 11.5 mph - 0.00 in Snow Light Snow
11:27 PM 16.0 °F 3.6 °F 10.9 °F 81% 30.03 in 2.5 mi ENE 10.4 mph - 0.00 in Snow Light Snow
11:41 PM 16.0 °F 5.3 °F 12.0 °F 84% 30.03 in 1.5 mi East 8.1 mph - 0.00 in Snow Light Snow
11:53 PM 16.0 °F 4.4 °F 12.0 °F 84% 30.18 in 1.5 mi ENE 9.2 mph - 0.00 in Snow Light Snow